Find Starlink 32602

NORAD ID: 62181 Int'l Des: 2024-225 Owner: SPXS Country: US Constellation: starlink operational
LEOCIRCULAR

Live-Position

3D-Globus wird geladen...

Über Starlink 32602

Beschreibung wird geladen...

Nächste Überflüge

Passes for default location (London). Set your location on the main map for personalized predictions.

Höhenverlauf

Loading altitude history...

Zweizeiliger Elementsatz

1 62181U 24225U 26125.42910723 .00008934 00000-0 75567-3 0 9994
2 62181 70.0025 11.4055 0002681 277.3718 82.7137 14.98327110 78629
Epoch: 5. Mai 2026 • Age: 13 hours

Aktueller Status

Höhe 581.4 km
Geschwindigkeit 7.57 km/s
Subsatellitenpunkt 51.66°N, 56.07°W
Startdatum 30. Nov. 2024
Alter 1.4 years
Typ internet

Technische Details

Klassifizierung Payload
Masse 730.00 kg
Trockenmasse 700.00 kg
Gesamtmasse 730.00 kg
Länge 0.30 m
Durchmesser 4.10 m
Spannweite 29.00 m
Form Box + pan
Hersteller SPXS
Bus-Typ Starlink V2M
Phasenstatus In Orbit
Besitzer/Staat SPXS/US

Most Searched